Regional Weather Roundup
Issued by NWS

Home | Current Version | Previous Version | Graphics & Text | Print | Product List | Glossary On
Versions: 1 2 3 4 5 6 7 8 9 10 11 12 13 14 15 16 17 18 19 20 21 22 23 24 25 26 27 28 29 30 31 32 33 34 35 36 37 38 39 40 41 42 43 44 45 46 47 48 49 50
000
ASUS45 KTFX 301704
RWRMT
MONTANA HOURLY WEATHER ROUNDUP
NATIONAL WEATHER SERVICE GREAT FALLS MT
1104 AM MDT WED JUL 30 2014

NOTE: "FAIR" INDICATES FEW OR NO CLOUDS BELOW 12000 FEET WITH NO
SIGNIFICANT WEATHER AND/OR OBSTRUCTIONS TO VISIBILITY.

* THESE STATIONS ARE NOT UNDER NWS QUALITY CONTROL. THEY DO NOT
   REPORT WEATHER SUCH AS PRECIPITATION OR FOG.

MTZ001>007-043-301800-
WEST OF THE DIVIDE
CITY           SKY/WX    TMP DP  RH WIND       PRES   REMARKS
KALISPELL      SUNNY     77  54  45 VRB3      30.12F
MISSOULA       PTCLDY    79  45  30 SW3       30.16F
BUTTE          SUNNY     75  46  36 CALM      30.30F
MULLAN PASS    PTCLDY    73  41  32 CALM      30.31S
* LINCOLN      N/A       71  49  46 NW2        N/A
* LOOKOUT PASS N/A       78  49  36 SE3        N/A
* POLSON       N/A       81  54  39 S3         N/A
* RONAN APT    SUNNY     79  52  39 N/A        N/A
* SEELEY LAKE  N/A       77  47  35 W2         N/A
* THOMP F APT  PTCLDY    71  40  33 E5G16      N/A
* YAAK HILL    N/A       79  50  36 S1         N/A
$$

MTZ008-052>055-301800-
SOUTHWEST MONTANA
CITY           SKY/WX    TMP DP  RH WIND       PRES   REMARKS
BOZEMAN        SUNNY     75  54  48 N5        30.25F
DILLON         PTCLDY    72  48  43 VRB3      30.28F
W YELLOWSTONE  PTCLDY    57  52  83 CALM      30.41F
* THREE FORKS  PTCLDY    75  73  94 N/A        N/A
* BOULDER HILL N/A       73  47  40 SW11       N/A
* MONIDA PASS  N/A       70  43  38 E8         N/A
* RAYNOLDS PAS N/A       67  46  47 S9         N/A
* WHITEHALL    N/A       74  51  45 E3         N/A
* WISE RIVER   N/A       69  47  46 NW4        N/A
$$

MTZ009>010-012-014-046-048-049-054-301800-
EAST SLOPES AND CENTRAL MONTANA
CITY           SKY/WX    TMP DP  RH WIND       PRES   REMARKS
CUT BANK       PTCLDY    81  46  29 SE7       30.16F
GREAT FALLS    SUNNY     88  43  21 S10G17    30.16F
HELENA         SUNNY     77  48  36 E3        30.20F
MALMSTROM AFB  SUNNY     84  46  26 VRB1      30.17F
* CONRAD       SUNNY     79  54  42 N/A        N/A
* DEARBORN     N/A       83  49  31 SW2G8      N/A
* EAST GLACIER N/A       81  44  27 W4         N/A
* MONARCH      N/A       78  42  28 S6G13      N/A
* ROGERS PASS  N/A       77  42  29 SE9G14     N/A
* SAINT MARY   N/A       75  51  43 W3         N/A
* SWEET GRASS  N/A       79  44  29 S12G20     N/A
$$

MTZ011-013-016-021-035-040-045-047-050-051-301800-
NORTH CENTRAL MONTANA
CITY           SKY/WX    TMP DP  RH WIND       PRES   REMARKS
HAVRE          SUNNY     86  48  27 CALM      30.12F
LEWISTOWN      PTCLDY    84  39  20 VRB5      30.24S
* CHESTER      N/A       84  44  25 S2         N/A
* DENTON       N/A       87  48  26 SE11G22    N/A
* GEYSER       N/A       86  44  23 E15        N/A
* JUDITH GAP   N/A       76  53  45 S10G15     N/A
* LOMA         N/A       85  49  29 S2G7       N/A
$$

MTZ017>020-022>027-061-062-301800-
NORTHEAST MONTANA
CITY           SKY/WX    TMP DP  RH WIND       PRES   REMARKS
GLASGOW        SUNNY     82  52  35 S12       30.16F
GLENDIVE       SUNNY     77  54  45 E6        30.21S
JORDAN         SUNNY     84  43  24 CALM      30.17F
SIDNEY         SUNNY     79  54  42 E6        30.20S
WOLF POINT     SUNNY     81  54  39 VRB3      30.17F
* BEAVER HILL  N/A       75  54  48 W1G10      N/A
* CIRCLE       N/A       81  54  39 N/A        N/A
* LINDSAY DVD  N/A       78  52  40 NE6        N/A
$$

MTZ028>042-056>058-301800-
SOUTHCENTRAL AND SOUTHEAST MONTANA
CITY           SKY/WX    TMP DP  RH WIND       PRES   REMARKS
BAKER          SUNNY     79  48  34 NE8       30.23R
BILLINGS       PTCLDY    77  54  45 SW5       30.25S
LIVINGSTON     PTCLDY    77  46  33 E5        30.27F
MILES CITY     SUNNY     82  48  31 E7        30.20S
* LAUREL APT   SUNNY     79  50  36 N/A        N/A
* ROUNDUP APT  PTCLDY    81  48  32 S6         N/A
* ALZADA       N/A       76  45  33 W6         N/A
* HYSHAM       N/A       84  48  29 W1         N/A
* LAME DEER    N/A       75  40  28 N4G10      N/A
* REED POINT   N/A       79  49  35 E6         N/A
* ROSCOE HILL  N/A       77  37  24 E17G24     N/A
$$

REGIONAL REPORTS...DAKOTAS
CITY           SKY/WX    TMP DP  RH WIND       PRES   REMARKS
WILLISTON      SUNNY     79  52  39 NE12      30.19S
DICKINSON      SUNNY     75  54  48 CALM      30.18S
CROSBY         SUNNY     73  57  57 NE6       30.21R
TIOGA          SUNNY     73  50  44 N8        30.22S
WATFORD CITY   SUNNY     75  55  50 NE6       30.17F
BISMARCK       SUNNY     81  55  41 VRB3      30.16F HI  81
GRAND FORKS    SUNNY     77  57  50 N3        30.11F
FARGO          SUNNY     77  55  47 NW6       30.12F
BUFFALO SD     SUNNY     77  52  42 NW12      30.15R
RAPID CITY     PTCLDY    79  55  44 NE8       30.20F
$$

REGIONAL REPORTS...WYOMING/IDAHO/WASHINGTON
CITY           SKY/WX    TMP DP  RH WIND       PRES   REMARKS
GILLETTE       PTCLDY    75  46  36 NE6       30.27F
SHERIDAN       PTCLDY    79  45  30 NE5       30.27F
YELLOWSTONE LA PTCLDY    64  39  40 E3        30.49S
SALMON         PTSUNNY   70  52  53 CALM      30.21F
MULLAN PASS    PTCLDY    73  41  32 CALM      30.31S
SAND POINT     SUNNY     75  55  50 SE3       30.08S
SPOKANE        PTCLDY    84  45  26 S6        30.07F

$$



USA.gov is the U.S. government's official web portal to all federal, state and local government web resources and services.